Simultaneous Nadir Overpasses (SNOs) Predictions

Prediction of SNOs between NOAA-19 and TERRA Satellite Orbit:

Table of predicted SNOs for the next 14.0 days since TLE Epoch: 3/28/2020
Index Date (NOAA-19) Time (NOAA-19) Lat,Lon (NOAA-19) SZA (NOAA-19 ) Date (TERRA) Time (TERRA) Lat,Lon (TERRA) SZA (TERRA ) Distance(km) Time Diff (sec)
1 03/28/2020 16:10:01 -79.31, 144.32 103.03 03/28/2020 16:10:50 -79.30, 144.31 103.02 0.82 49
2 03/28/2020 17:00:57 79.27, -48.04 76.96 03/28/2020 17:00:16 79.30, -48.06 76.97 3.68 41
3 03/30/2020 21:43:20 79.37,-119.50 76.15 03/30/2020 21:44:32 79.31,-119.06 76.15 11.46 72
4 03/30/2020 22:34:20 -79.29, 48.52 103.89 03/30/2020 22:34:00 -79.28, 48.36 103.92 3.49 20
5 04/02/2020 04:07:38 79.31, 145.09 75.29 04/02/2020 04:07:41 79.32, 145.21 75.30 2.56 3
6 04/04/2020 09:40:59 -79.30,-118.08 105.55 04/04/2020 09:41:24 -79.33,-118.13 105.52 3.58 25
7 04/04/2020 10:31:58 79.31, 49.13 74.45 04/04/2020 10:30:51 79.28, 49.20 74.41 2.89 67
8 04/06/2020 15:14:18 79.32, -21.52 73.64 04/06/2020 15:15:06 79.32, -21.60 73.65 1.65 48
9 04/06/2020 16:05:19 -79.31, 145.81 106.38 04/06/2020 16:04:34 -79.30, 145.86 106.41 2.19 45
10 04/08/2020 20:47:39 -79.35, 75.00 107.17 04/08/2020 20:48:49 -79.34, 75.04 107.16 1.64 70




NCC Satellite Simultaneous Nadir Overpasses (SNOs) Prediction Service
